Gulfport, MS

8:48 PM CDT on May 21, 2018 (GMT -0500)
Gulfport-Biloxi Regional

Weather History for KGPT - February, 2013

Change the Weather History Date:

Tuesday, February 26, 2013

  Actual Average Record
Temperature  
Mean Temperature 54 °F -  
Max Temperature 61 °F 67 °F 80 °F (1972)
Min Temperature 48 °F 46 °F 27 °F (1967)
Degree Days  
Heating Degree Days 10    
Growing Degree Days 4 (Base 50)    
Moisture  
Dew Point 40 °F    
Average Humidity 60    
Maximum Humidity 80    
Minimum Humidity 49    
Precipitation  
Precipitation 0.00 in - - ()
Sea Level Pressure  
Sea Level Pressure 29.75 in    
Wind  
Wind Speed 7 mph (West)    
Max Wind Speed 14 mph    
Max Gust Speed 23 mph    
Visibility 10 miles    
Events      
Averages and records for this station are not official NWS values.
T = Trace of Precipitation, MM = Missing Value Source: NWS Daily Summary

Daily Weather History Graph

Daily Weather History Graph

Search for Another Location

Airport or City:

Astronomy

Feb. 26, 2013 Rise Set
Actual Time 6:25 AM CST 5:53 PM CST
Civil Twilight 6:01 AM CST 6:17 PM CST
Nautical Twilight 5:33 AM CST 6:45 PM CST
Astronomical Twilight 5:05 AM CST 7:13 PM CST
Moon 7:00 PM CST (2/26) 6:35 AM CST (2/26)
Length of Visible Light 12h 16m
Length of Day
11h 27m
Full, 99% of the Moon is Illuminated
Feb 26
Full
Mar 4
Last Quarter
Mar 11
New
Mar 19
First Quarter
Mar 27
Full

Hourly Weather History & Observations

Time (CST) Temp. Dew Point Humidity Pressure Visibility Wind Dir Wind Speed Gust Speed Precip Events Conditions
12:53 AM 61.0 °F 46.9 °F 60% 29.55 in - West 6.9 mph - N/A   Clear
1:53 AM 59.0 °F 43.0 °F 55% 29.56 in - West 8.1 mph - N/A   Clear
2:53 AM 57.0 °F 43.0 °F 59% 29.58 in - West 4.6 mph - N/A   Clear
3:53 AM 55.0 °F 36.0 °F 49% 29.59 in - North - - N/A   Clear
4:53 AM 52.0 °F 36.0 °F 54% 29.61 in - West 5.8 mph - N/A   Clear
5:53 AM 50.0 °F 35.1 °F 57% 29.65 in 10.0 mi West 10.4 mph 16.1 mph N/A   Clear
6:53 AM 48.0 °F 34.0 °F 58% 29.70 in - West 13.8 mph 19.6 mph N/A   Clear
7:53 AM 48.9 °F 34.0 °F 56% 29.73 in 10.0 mi West 8.1 mph 21.9 mph N/A   Clear
8:53 AM 51.1 °F 36.0 °F 56% 29.75 in - WNW 13.8 mph 19.6 mph N/A   Clear
9:53 AM 53.1 °F 37.0 °F 55% 29.76 in - West 8.1 mph 19.6 mph N/A   Clear
10:53 AM 54.0 °F 39.0 °F 57% 29.77 in - West 10.4 mph 19.6 mph N/A   Clear
11:53 AM 55.9 °F 39.9 °F 55% 29.76 in 10.0 mi West 11.5 mph - N/A   Clear
12:53 PM 57.9 °F 39.0 °F 49% 29.75 in - West 9.2 mph 20.7 mph N/A   Clear
1:53 PM 57.0 °F 39.0 °F 51% 29.74 in 10.0 mi West 11.5 mph 23.0 mph N/A   Clear
2:53 PM 57.9 °F 39.9 °F 51% 29.74 in 10.0 mi West 9.2 mph - N/A   Clear
3:53 PM 57.9 °F 39.9 °F 51% 29.76 in 10.0 mi West 9.2 mph - N/A   Clear
4:53 PM 55.9 °F 41.0 °F 57% 29.78 in 10.0 mi WSW 8.1 mph - N/A   Clear
5:53 PM 55.0 °F 39.9 °F 57% 29.81 in 10.0 mi WSW 5.8 mph - N/A   Clear
6:53 PM 54.0 °F 41.0 °F 62% 29.84 in - Variable 4.6 mph - N/A   Clear
7:53 PM 53.1 °F 43.0 °F 69% 29.88 in - Calm Calm - N/A   Clear
8:53 PM 51.1 °F 45.0 °F 80% 29.90 in 10.0 mi Calm Calm - N/A   Clear
9:53 PM 51.1 °F 45.0 °F 80% 29.92 in - Calm Calm - N/A   Clear
10:53 PM 51.1 °F 44.1 °F 77% 29.93 in - Calm Calm - N/A   Clear
11:53 PM 51.1 °F 43.0 °F 74% 29.93 in - Calm Calm - N/A   Clear